Change the Weather History Date:

Monday, March 18, 2013

  Actual Average Record
Temperature  
Mean Temperature 32 °F -  
Max Temperature 39 °F 49 °F 82 °F (2012)
Min Temperature 26 °F 29 °F 6 °F (1941)
Degree Days  
Heating Degree Days 32    
Moisture  
Dew Point 29 °F    
Average Humidity 85    
Maximum Humidity 100    
Minimum Humidity 64    
Precipitation  
Precipitation 0.03 in - - ()
Sea Level Pressure  
Sea Level Pressure 29.74 in    
Wind  
Wind Speed 17 mph (WNW)    
Max Wind Speed 34 mph    
Max Gust Speed 41 mph    
Visibility 7 miles    
Events Snow    
Averages and records for this station are not official NWS values.
T = Trace of Precipitation, MM = Missing Value Source: NWS Daily Summary

Daily Weather History Graph

Daily Weather History Graph

Search for Another Location

Airport or City:

Trip Planner

Search our weather history database for the weather conditions in past years. The results will help you decide how hot, cold, wet, or windy it might be!

Date:

Astronomy

Mar. 18, 2013 Rise Set
Actual Time 7:00 AM CDT 7:04 PM CDT
Civil Twilight 6:33 AM CDT 7:32 PM CDT
Nautical Twilight 6:01 AM CDT 8:04 PM CDT
Astronomical Twilight 5:28 AM CDT 8:36 PM CDT
Moon 10:57 AM CDT (3/18) 1:06 AM CDT (3/18)
Length of Visible Light 12h 58m
Length of Day
12h 04m
Waxing Crescent, 41% of the Moon is Illuminated
Mar 18
Waxing Crescent
Mar 19
First Quarter
Mar 27
Full
Apr 2
Last Quarter
Apr 10
New

Hourly Weather History & Observations

Time (CDT) Temp. Windchill Dew Point Humidity Pressure Visibility Wind Dir Wind Speed Gust Speed Precip Events Conditions
12:15 AM 33.8 °F 22.5 °F 28.4 °F 81% 29.92 in 10.0 mi East 19.6 mph - N/A   Overcast
12:35 AM 33.8 °F 23.2 °F 28.4 °F 81% 29.92 in 10.0 mi East 17.3 mph - N/A   Mostly Cloudy
12:55 AM 33.8 °F 22.8 °F 28.4 °F 81% 29.90 in 7.0 mi East 18.4 mph - N/A   Mostly Cloudy
7:15 AM 32.0 °F 23.0 °F 30.2 °F 93% 29.71 in 3.0 mi ENE 11.5 mph - N/A   Overcast
7:35 AM 32.0 °F 22.5 °F 32.0 °F 100% 29.70 in 3.0 mi East 12.7 mph - N/A   Overcast
7:55 AM 32.0 °F 23.0 °F 32.0 °F 100% 29.69 in 3.0 mi East 11.5 mph - N/A   Overcast
8:15 AM 33.8 °F 25.8 °F 32.0 °F 93% 29.70 in 4.0 mi East 10.4 mph - N/A   Overcast
8:35 AM 33.8 °F 27.7 °F 32.0 °F 93% 29.72 in 5.0 mi East 6.9 mph - N/A   Overcast
8:55 AM 33.8 °F 25.8 °F 32.0 °F 93% 29.70 in 4.0 mi East 10.4 mph - N/A   Overcast
9:15 AM 33.8 °F 26.4 °F 32.0 °F 93% 29.69 in 1.2 mi East 9.2 mph - N/A   Overcast
9:35 AM 33.8 °F 27.0 °F 32.0 °F 93% 29.68 in 1.5 mi East 8.1 mph - N/A   Overcast
9:55 AM 33.8 °F 28.6 °F 32.0 °F 93% 29.68 in 1.8 mi ENE 5.8 mph - N/A   Overcast
10:15 AM 33.8 °F 30.8 °F 32.0 °F 93% 29.70 in 2.0 mi East 3.5 mph - N/A   Overcast
10:35 AM 33.8 °F 29.6 °F 33.8 °F 100% 29.69 in 1.8 mi East 4.6 mph - N/A   Overcast
10:55 AM 33.8 °F 29.6 °F 33.8 °F 100% 29.67 in 1.0 mi East 4.6 mph - N/A   Overcast
11:55 AM 33.8 °F - 33.8 °F 100% 29.67 in 1.8 mi Calm Calm - 0.02 in   Overcast
12:15 PM 33.8 °F - 33.8 °F 100% 29.67 in 1.5 mi Calm Calm - 0.01 in   Overcast
12:35 PM 33.8 °F 29.6 °F 33.8 °F 100% 29.67 in 1.8 mi West 4.6 mph - 0.01 in   Overcast
12:55 PM 33.8 °F 29.6 °F 33.8 °F 100% 29.66 in 2.5 mi West 4.6 mph - 0.01 in   Overcast
1:15 PM 35.6 °F 29.9 °F 33.8 °F 93% 29.66 in 5.0 mi West 6.9 mph - N/A   Overcast
1:35 PM 35.6 °F 28.6 °F 33.8 °F 93% 29.66 in 10.0 mi West 9.2 mph - N/A   Overcast
1:55 PM 35.6 °F 26.6 °F 33.8 °F 93% 29.67 in 10.0 mi West 13.8 mph - N/A   Overcast
2:15 PM 35.6 °F 25.5 °F 33.8 °F 93% 29.67 in 5.0 mi West 17.3 mph - N/A   Overcast
2:35 PM 35.6 °F 25.5 °F 33.8 °F 93% 29.66 in 4.0 mi West 17.3 mph - N/A   Overcast
2:55 PM 37.4 °F 28.5 °F 35.6 °F 93% 29.66 in 7.0 mi West 15.0 mph - N/A   Overcast
3:15 PM 37.4 °F 26.9 °F 35.6 °F 93% 29.66 in 4.0 mi West 20.7 mph - N/A   Overcast
3:35 PM 39.2 °F 29.3 °F 35.6 °F 87% 29.66 in 10.0 mi West 20.7 mph 31.1 mph N/A   Overcast
3:55 PM 39.2 °F 29.0 °F 35.6 °F 87% 29.66 in 10.0 mi West 21.9 mph 31.1 mph N/A   Overcast
4:15 PM 39.2 °F 29.0 °F 35.6 °F 87% 29.67 in 10.0 mi West 21.9 mph 28.8 mph N/A   Overcast
4:35 PM 39.2 °F 28.3 °F 35.6 °F 87% 29.67 in 10.0 mi West 25.3 mph 32.2 mph N/A   Overcast
4:55 PM 39.2 °F 28.7 °F 35.6 °F 87% 29.68 in 10.0 mi West 23.0 mph 27.6 mph N/A   Overcast
5:15 PM 37.4 °F 25.9 °F 35.6 °F 93% 29.69 in 10.0 mi West 25.3 mph 31.1 mph N/A   Overcast
5:35 PM 37.4 °F 25.6 °F 33.8 °F 87% 29.70 in 10.0 mi West 26.5 mph 33.4 mph N/A   Overcast
5:55 PM 37.4 °F 25.0 °F 32.0 °F 81% 29.71 in 10.0 mi WNW 29.9 mph 34.5 mph N/A   Mostly Cloudy
6:15 PM 37.4 °F 25.6 °F 30.2 °F 75% 29.72 in 10.0 mi WNW 26.5 mph 34.5 mph N/A   Mostly Cloudy
6:35 PM 35.6 °F 22.3 °F 28.4 °F 75% 29.73 in 10.0 mi WNW 31.1 mph 38.0 mph N/A   Mostly Cloudy
6:55 PM 33.8 °F 21.0 °F 26.6 °F 75% 29.76 in 10.0 mi West 25.3 mph 40.3 mph N/A   Mostly Cloudy
7:15 PM 33.8 °F 19.6 °F 24.8 °F 70% 29.77 in 10.0 mi WNW 32.2 mph 39.1 mph N/A   Scattered Clouds
7:35 PM 32.0 °F 18.6 °F 24.8 °F 75% 29.79 in 10.0 mi West 25.3 mph 39.1 mph N/A   Clear
7:55 PM 30.2 °F 15.4 °F 21.2 °F 69% 29.80 in 10.0 mi West 28.8 mph 38.0 mph N/A   Clear
8:15 PM 30.2 °F 14.3 °F 21.2 °F 69% 29.80 in 10.0 mi WNW 34.5 mph 40.3 mph N/A   Clear
8:35 PM 30.2 °F 15.9 °F 21.2 °F 69% 29.82 in 10.0 mi WNW 26.5 mph 35.7 mph N/A   Clear
8:55 PM 28.4 °F 13.0 °F 19.4 °F 69% 29.83 in 10.0 mi WNW 28.8 mph 39.1 mph N/A   Clear
9:15 PM 28.4 °F 13.5 °F 19.4 °F 69% 29.84 in 10.0 mi West 26.5 mph 41.4 mph N/A   Clear
9:35 PM 28.4 °F 12.7 °F 19.4 °F 69% 29.85 in 10.0 mi West 29.9 mph 39.1 mph N/A   Mostly Cloudy
9:55 PM 26.6 °F 9.8 °F 17.6 °F 69% 29.85 in 10.0 mi West 32.2 mph 39.1 mph N/A   Overcast
10:15 PM 26.6 °F 10.0 °F 17.6 °F 69% 29.86 in 10.0 mi West 31.1 mph 36.8 mph N/A   Overcast
10:35 PM 26.6 °F 11.4 °F 17.6 °F 69% 29.87 in 10.0 mi West 25.3 mph 33.4 mph N/A   Overcast
10:55 PM 26.6 °F 10.0 °F 15.8 °F 64% 29.87 in 10.0 mi West 31.1 mph 34.5 mph N/A   Overcast
11:15 PM 26.6 °F 11.4 °F 17.6 °F 69% 29.88 in 10.0 mi WNW 25.3 mph 34.5 mph N/A Snow Light Snow
11:35 PM 26.6 °F 11.1 °F 17.6 °F 69% 29.88 in 10.0 mi West 26.5 mph 31.1 mph N/A Snow Light Snow
11:55 PM 26.6 °F 11.4 °F 17.6 °F 69% 29.88 in 10.0 mi WNW 25.3 mph 31.1 mph N/A   Overcast